Flag for Brazil Weather past 2 weeks in Fortaleza, Ceará, Brazil

Now
79 °F

Passing clouds.


Feels Like: 81 °F
Forecast: 76 / 87 °F
Wind: 10 mph from Northeast

Location: Fortaleza Aeropor-To

Current Time: Jul 30, 2014 at 11:10:39 PM

Latest Report: Jul 30, 2014 at 10:00 PM


Visibility: N/A

Pressure: 30.01 "Hg

Humidity: 74%

Dew point: 70 °F

Location of FortalezaLocation

Historic Weather in Fortaleza — Graph

°F

Fortaleza temperature yesterday

Maximum temperature yesterday: 86 °F (at 11:00 AM)
Minimum temperature yesterday: 75 °F (at 1:00 AM)
Average temperature yesterday: 79 °F

Past Weeks' High & Low Weather Summary

 TemperatureHumidityPressure
High88 °F (Jul 20, 11:00 AM)89% (Jul 24, 5:00 PM)30.07 "Hg (Jul 24, 5:00 PM)
Low72 °F (Jul 25, 5:00 AM)35% (Jul 27, 12:00 PM)29.86 "Hg (Jul 26, 3:00 PM)
Average80 °F67%29.98 "Hg
* Reported Jul 15 10:00 PM — Jul 30 10:00 PM, Fortaleza, Weather by CustomWeather, © 2014

Note: Actual official high and low records may vary slightly from our data, if they occured in-between our weather recording intervals... More about our weather records

Advertising

Fortaleza weather history for previous 24 hours

 ConditionsComfort  
Time TempWeatherWind HumidityBarometerVisibility
10:00 PM
Jul 30
79 °FPassing clouds.10 mph74%30.01 "HgN/A
9:00 PM79 °FPassing clouds.9 mph74%29.98 "HgN/A
8:00 PM79 °FClear.6 mph74%29.98 "Hg10 mi
7:00 PM81 °FClear.7 mph66%29.95 "Hg10 mi
6:00 PM79 °FClear.7 mph65%29.95 "Hg10 mi
5:00 PM81 °FSunny.10 mph62%29.92 "Hg10 mi
4:00 PM82 °FSunny.16 mph58%29.92 "Hg10 mi
3:00 PM84 °FSunny.15 mph51%29.92 "Hg10 mi
2:00 PM84 °FPassing clouds.16 mph48%29.92 "HgN/A
1:00 PM86 °FScattered clouds.18 mph43%29.95 "HgN/A
12:00 PM84 °FScattered clouds.16 mph45%29.98 "HgN/A
11:00 AM86 °FScattered clouds.18 mph38%29.98 "HgN/A
10:00 AM84 °FScattered clouds.18 mph40%30.01 "HgN/A
9:00 AM82 °FSunny.15 mph45%30.01 "Hg10 mi
8:00 AM79 °FSunny.16 mph54%30.01 "Hg10 mi
7:00 AM75 °FSunny.10 mph69%30.01 "Hg10 mi
6:00 AM75 °FSunny.8 mph65%29.98 "Hg10 mi
5:00 AM77 °FPassing clouds.9 mph69%29.98 "HgN/A
4:00 AM77 °FPassing clouds.12 mph69%29.98 "HgN/A
3:00 AM79 °FPassing clouds.15 mph70%29.95 "HgN/A
2:00 AM79 °FPassing clouds.14 mph70%29.98 "HgN/A
1:00 AM79 °FPassing clouds.15 mph74%29.98 "HgN/A
12:00 AM79 °FPassing clouds.17 mph74%30.01 "HgN/A
11:00 PM
Jul 29
79 °FPassing clouds.15 mph79%30.01 "HgN/A
Weather by CustomWeather, © 2014

See weather overviewHow to use our weather pages